Beaver Falls, PA

1:42 AM EST on November 13, 2019 (GMT -0500)
Beaver County

Weather History for KBVI - September, 2019

Change the Weather History Date:

Monday, September 23, 2019

  Actual Average Record
Temperature  
Mean Temperature 72 °F -  
Max Temperature 81 °F 68 °F 87 °F (2016)
Min Temperature 61 °F 51 °F 39 °F (2012)
Cooling Degree Days 6    
Growing Degree Days 22 (Base 50)    
Moisture  
Dew Point 59 °F    
Average Humidity 67    
Maximum Humidity 87    
Minimum Humidity 53    
Precipitation  
Precipitation 0.00 in - - ()
Sea Level Pressure  
Sea Level Pressure 29.92 in    
Wind  
Wind Speed 7 mph (WSW)    
Max Wind Speed 13 mph    
Max Gust Speed 20 mph    
Visibility 10 miles    
Events Rain    
Averages and records for this station are not official NWS values.
T = Trace of Precipitation, MM = Missing Value Source: NWS Daily Summary

Daily Weather History Graph

Daily Weather History Graph

Search for Another Location

Airport or City:

Astronomy

Sep. 23, 2019 Rise Set
Actual Time 7:09 AM EDT 7:17 PM EDT
Civil Twilight 6:42 AM EDT 7:44 PM EDT
Nautical Twilight 6:10 AM EDT 8:16 PM EDT
Astronomical Twilight 5:37 AM EDT 8:49 PM EDT
Moon 12:49 AM EDT (9/23) 4:11 PM EDT (9/23)
Length of Visible Light 13h 02m
Length of Day
12h 07m
Waning Crescent, 33% of the Moon is Illuminated
Sep 23
Waning Crescent
Sep 28
New
Oct 5
First Quarter
Oct 13
Full
Oct 21
Last Quarter

Hourly Weather History & Observations

Time (EDT) Temp. Heat Index Dew Point Humidity Pressure Visibility Wind Dir Wind Speed Gust Speed Precip Events Conditions
12:15 AM 71.8 °F - 57.7 °F 61% 29.99 in 10.0 mi SSW 5.8 mph - N/A   Clear
12:35 AM 71.2 °F - 57.7 °F 62% 29.98 in 10.0 mi SSW 6.9 mph - N/A   Clear
12:55 AM 71.6 °F - 57.4 °F 61% 29.98 in 10.0 mi SSW 5.8 mph - N/A   Clear
1:15 AM 70.3 °F - 57.4 °F 63% 29.98 in 10.0 mi South 5.8 mph - N/A   Clear
1:35 AM 70.2 °F - 57.2 °F 63% 29.97 in 10.0 mi South 6.9 mph - N/A   Clear
1:55 AM 70.0 °F - 57.2 °F 64% 29.97 in 10.0 mi SSW 5.8 mph - N/A   Clear
2:15 AM 70.0 °F - 57.0 °F 63% 29.96 in 10.0 mi SSW 5.8 mph - N/A   Clear
2:16 AM 70.0 °F - 57.2 °F 64% 29.96 in 10.0 mi SSW 6.9 mph - N/A   Clear
2:35 AM 70.0 °F - 57.0 °F 63% 29.96 in 10.0 mi SSW 5.8 mph - N/A   Clear
2:55 AM 69.6 °F - 56.8 °F 64% 29.96 in 10.0 mi SSW 6.9 mph - N/A   Clear
3:15 AM 70.0 °F - 56.7 °F 63% 29.96 in 10.0 mi SSW 8.1 mph - N/A   Clear
3:35 AM 69.8 °F - 56.7 °F 63% 29.95 in 10.0 mi SSW 6.9 mph - N/A   Clear
3:36 AM 69.8 °F - 56.5 °F 63% 29.95 in 10.0 mi SSW 8.1 mph - N/A   Clear
3:55 AM 69.1 °F - 56.5 °F 64% 29.95 in 10.0 mi SSW 6.9 mph - N/A   Clear
4:15 AM 68.0 °F - 56.5 °F 67% 29.95 in 10.0 mi SSW 4.6 mph - N/A   Clear
4:35 AM 68.2 °F - 56.3 °F 66% 29.94 in 10.0 mi SSW 4.6 mph - N/A   Scattered Clouds
4:36 AM 68.0 °F - 56.3 °F 66% 29.94 in 10.0 mi South 4.6 mph - N/A   Scattered Clouds
4:55 AM 68.4 °F - 56.3 °F 65% 29.94 in 10.0 mi SSW 4.6 mph - N/A   Mostly Cloudy
4:56 AM 68.4 °F - 56.3 °F 65% 29.94 in 10.0 mi SSW 4.6 mph - N/A   Mostly Cloudy
5:15 AM 68.2 °F - 55.9 °F 65% 29.93 in 10.0 mi SSW 6.9 mph - N/A   Scattered Clouds
5:35 AM 68.0 °F - 55.8 °F 65% 29.93 in 10.0 mi South 6.9 mph - N/A   Clear
5:36 AM 68.0 °F - 55.8 °F 65% 29.93 in 10.0 mi SSW 8.1 mph - N/A   Clear
5:55 AM 68.4 °F - 55.9 °F 64% 29.93 in 10.0 mi SSW 8.1 mph - N/A   Clear
6:15 AM 68.5 °F - 55.9 °F 64% 29.94 in 10.0 mi SSW 8.1 mph - N/A   Clear
6:16 AM 68.5 °F - 55.8 °F 64% 29.94 in 10.0 mi SSW 8.1 mph - N/A   Clear
6:35 AM 69.3 °F - 55.6 °F 62% 29.94 in 10.0 mi SW 8.1 mph - N/A   Scattered Clouds
6:47 AM 73.4 °F - 55.4 °F 53% 29.95 in 10.0 mi WSW 10.4 mph - N/A   Scattered Clouds
6:55 AM 70.0 °F - 55.8 °F 61% 29.95 in 10.0 mi SW 10.4 mph - N/A   Drizzle
7:15 AM 69.6 °F - 56.3 °F 63% 29.95 in 10.0 mi SW 10.4 mph - N/A   Mostly Cloudy
7:35 AM 68.9 °F - 57.2 °F 66% 29.95 in 10.0 mi SSW 9.2 mph - N/A   Mostly Cloudy
7:47 AM 68.0 °F - 57.2 °F 68% 29.93 in 10.0 mi SSW 6.9 mph - N/A   Mostly Cloudy
7:55 AM 68.2 °F - 57.2 °F 68% 29.93 in 10.0 mi SSW 9.2 mph - N/A   Overcast
7:56 AM 68.2 °F - 57.2 °F 68% 29.94 in 10.0 mi SSW 8.1 mph - N/A   Overcast
8:15 AM 68.0 °F - 58.1 °F 71% 29.94 in 10.0 mi SSW 6.9 mph - N/A   Overcast
8:35 AM 68.2 °F - 58.5 °F 71% 29.93 in 10.0 mi SSW 8.1 mph - N/A   Overcast
8:47 AM 68.0 °F - 59.0 °F 73% 29.93 in 10.0 mi SSW 9.2 mph - N/A   Overcast
8:55 AM 68.7 °F - 59.0 °F 71% 29.93 in 10.0 mi SW 8.1 mph - N/A   Overcast
8:56 AM 68.7 °F - 59.0 °F 71% 29.93 in 10.0 mi SW 8.1 mph - N/A   Overcast
9:15 AM 68.5 °F - 59.2 °F 72% 29.95 in 10.0 mi SW 9.2 mph - N/A   Overcast
9:35 AM 69.6 °F - 59.5 °F 70% 29.94 in 10.0 mi SSW 9.2 mph - N/A   Overcast
9:47 AM 69.8 °F - 59.0 °F 68% 29.94 in 10.0 mi SSW 9.2 mph - N/A   Overcast
9:55 AM 69.8 °F - 59.2 °F 69% 29.94 in 10.0 mi SSW 10.4 mph - N/A   Overcast
10:15 AM 72.7 °F - 59.0 °F 62% 29.94 in 10.0 mi SW 11.5 mph 18.4 mph N/A   Mostly Cloudy
10:16 AM 72.3 °F - 59.0 °F 63% 29.94 in 10.0 mi SW 12.7 mph 18.4 mph N/A   Mostly Cloudy
10:35 AM 73.6 °F - 60.6 °F 64% 29.93 in 10.0 mi SW 6.9 mph - N/A   Mostly Cloudy
10:36 AM 73.9 °F - 61.0 °F 64% 29.93 in 10.0 mi SW 8.1 mph - N/A   Mostly Cloudy
10:47 AM 75.2 °F - 60.8 °F 61% 29.93 in 10.0 mi SW 9.2 mph 19.6 mph N/A   Mostly Cloudy
10:55 AM 74.3 °F - 61.0 °F 63% 29.93 in 10.0 mi SW 9.2 mph - N/A   Mostly Cloudy
10:56 AM 74.3 °F - 61.0 °F 63% 29.93 in 10.0 mi SW 10.4 mph - N/A   Mostly Cloudy
11:15 AM 73.2 °F - 61.3 °F 66% 29.93 in 10.0 mi SW 10.4 mph 16.1 mph N/A   Overcast
11:35 AM 71.8 °F - 61.9 °F 71% 29.93 in 10.0 mi SSW 11.5 mph 18.4 mph N/A   Overcast
11:36 AM 71.8 °F - 61.9 °F 71% 29.93 in 10.0 mi SSW 11.5 mph 18.4 mph N/A   Overcast
11:47 AM 69.8 °F - 62.6 °F 78% 29.92 in 10.0 mi SW 10.4 mph 18.4 mph N/A   Overcast
11:55 AM 68.5 °F - 63.5 °F 84% 29.93 in 4.0 mi WSW 8.1 mph - N/A Rain Rain
12:15 PM 68.4 °F - 64.2 °F 87% 29.92 in 10.0 mi SW 8.1 mph - N/A   Overcast
12:35 PM 70.0 °F - 64.6 °F 83% 29.92 in 10.0 mi SSW 8.1 mph 16.1 mph N/A   Overcast
12:55 PM 71.2 °F - 64.4 °F 79% 29.91 in 10.0 mi SW 11.5 mph 16.1 mph N/A   Overcast
12:56 PM 71.2 °F - 64.2 °F 78% 29.91 in 10.0 mi SW 10.4 mph 16.1 mph N/A   Overcast
1:15 PM 71.2 °F - 64.6 °F 79% 29.91 in 10.0 mi SW 10.4 mph - N/A   Overcast
1:16 PM 71.2 °F - 64.4 °F 79% 29.92 in 10.0 mi SW 10.4 mph - N/A   Overcast
1:35 PM 72.1 °F - 64.8 °F 78% 29.91 in 10.0 mi SW 8.1 mph - N/A   Overcast
1:55 PM 74.8 °F - 64.8 °F 71% 29.90 in 10.0 mi WSW 10.4 mph 17.3 mph N/A   Overcast
2:15 PM 79.0 °F - 64.8 °F 62% 29.90 in 10.0 mi WSW 10.4 mph 16.1 mph N/A   Overcast
2:35 PM 77.9 °F - 64.0 °F 62% 29.88 in 10.0 mi WSW 10.4 mph 17.3 mph N/A   Overcast
2:36 PM 77.9 °F - 64.2 °F 63% 29.88 in 10.0 mi WSW 10.4 mph 17.3 mph N/A   Overcast
2:55 PM 80.6 °F 82.2 °F 64.2 °F 57% 29.88 in 10.0 mi SW 12.7 mph - N/A   Mostly Cloudy
3:15 PM 77.9 °F - 63.1 °F 60% 29.87 in 10.0 mi SW 8.1 mph 18.4 mph N/A   Overcast
3:35 PM 81.0 °F 82.2 °F 62.8 °F 54% 29.86 in 10.0 mi WSW 8.1 mph - N/A   Mostly Cloudy
3:47 PM 78.8 °F - 62.6 °F 57% 29.86 in 10.0 mi WSW 8.1 mph 17.3 mph N/A   Mostly Cloudy
3:55 PM 76.8 °F - 64.6 °F 66% 29.87 in 7.0 mi NW 4.6 mph - N/A Rain Rain
3:56 PM 76.1 °F - 65.1 °F 69% 29.87 in 5.0 mi NW 6.9 mph - N/A Rain Rain
4:15 PM 71.6 °F - 65.1 °F 80% 29.87 in 7.0 mi SW 8.1 mph 16.1 mph N/A Rain Light Rain
4:16 PM 71.6 °F - 65.1 °F 80% 29.87 in 7.0 mi SW 8.1 mph 16.1 mph N/A Rain Light Rain
4:35 PM 74.8 °F - 67.3 °F 77% 29.87 in 10.0 mi SW 5.8 mph - N/A   Mostly Cloudy
4:47 PM 75.2 °F - 66.2 °F 73% 29.86 in 10.0 mi WSW 4.6 mph - N/A   Mostly Cloudy
4:55 PM 74.8 °F - 65.8 °F 73% 29.86 in 10.0 mi West 5.8 mph - N/A   Mostly Cloudy
4:56 PM 74.8 °F - 65.7 °F 73% 29.86 in 10.0 mi WNW 6.9 mph - N/A   Mostly Cloudy
5:15 PM 76.3 °F - 61.0 °F 59% 29.87 in 10.0 mi NNW 4.6 mph 17.3 mph N/A   Mostly Cloudy
5:16 PM 76.1 °F - 61.5 °F 60% 29.87 in 10.0 mi NNW 5.8 mph 17.3 mph N/A   Mostly Cloudy
5:35 PM 75.6 °F - 60.3 °F 59% 29.87 in 10.0 mi WNW 8.1 mph - N/A   Mostly Cloudy
5:47 PM 75.2 °F - 59.0 °F 57% 29.87 in 10.0 mi WNW 8.1 mph - N/A   Mostly Cloudy
5:55 PM 76.3 °F - 59.0 °F 55% 29.88 in 10.0 mi NW 8.1 mph - N/A   Mostly Cloudy
5:56 PM 76.3 °F - 59.0 °F 55% 29.88 in 10.0 mi WNW 9.2 mph - N/A   Mostly Cloudy
6:15 PM 74.8 °F - 58.3 °F 56% 29.89 in 10.0 mi WNW 5.8 mph 17.3 mph N/A   Scattered Clouds
6:16 PM 74.8 °F - 58.3 °F 56% 29.89 in 10.0 mi WNW 5.8 mph 17.3 mph N/A   Scattered Clouds
6:35 PM 75.0 °F - 58.1 °F 56% 29.89 in 10.0 mi NW 5.8 mph - N/A   Scattered Clouds
6:47 PM 73.4 °F - 55.4 °F 53% 29.89 in 10.0 mi NW 6.9 mph - N/A   Scattered Clouds
6:55 PM 72.9 °F - 56.8 °F 57% 29.90 in 10.0 mi NNW 4.6 mph - N/A   Clear
6:56 PM 72.7 °F - 57.2 °F 58% 29.90 in 10.0 mi NNW 4.6 mph - N/A   Clear
7:15 PM 70.5 °F - 58.5 °F 66% 29.90 in 10.0 mi NW 4.6 mph - N/A   Scattered Clouds
7:35 PM 70.0 °F - 58.6 °F 67% 29.91 in 10.0 mi NW 4.6 mph - N/A   Mostly Cloudy
7:47 PM 69.8 °F - 59.0 °F 68% 29.91 in 10.0 mi NW 5.8 mph - N/A   Scattered Clouds
7:55 PM 69.1 °F - 58.3 °F 68% 29.91 in 10.0 mi NW 5.8 mph - N/A   Scattered Clouds
7:56 PM 69.1 °F - 58.3 °F 68% 29.91 in 10.0 mi NW 4.6 mph - N/A   Scattered Clouds
8:15 PM 68.5 °F - 58.5 °F 70% 29.92 in 10.0 mi NW 5.8 mph - N/A   Clear
8:16 PM 68.5 °F - 58.5 °F 70% 29.92 in 10.0 mi NW 4.6 mph - N/A   Clear
8:35 PM 68.2 °F - 58.1 °F 70% 29.93 in 10.0 mi NNW 8.1 mph - N/A   Scattered Clouds
8:47 PM 68.0 °F - 57.2 °F 68% 29.93 in 10.0 mi NW 8.1 mph - N/A   Mostly Cloudy
8:55 PM 67.5 °F - 56.1 °F 67% 29.93 in 10.0 mi NW 6.9 mph - N/A   Mostly Cloudy
9:15 PM 67.3 °F - 55.9 °F 67% 29.94 in 10.0 mi NW 4.6 mph - N/A   Scattered Clouds
9:16 PM 67.1 °F - 55.9 °F 67% 29.94 in 10.0 mi NW 4.6 mph - N/A   Scattered Clouds
9:35 PM 66.0 °F - 55.6 °F 69% 29.94 in 10.0 mi NW 5.8 mph - N/A   Clear
9:36 PM 65.8 °F - 55.6 °F 69% 29.94 in 10.0 mi NW 5.8 mph - N/A   Clear
9:55 PM 65.5 °F - 54.9 °F 68% 29.95 in 10.0 mi NW 5.8 mph - N/A   Clear
10:15 PM 64.9 °F - 54.7 °F 69% 29.95 in 10.0 mi NW 4.6 mph - N/A   Clear
10:16 PM 64.9 °F - 54.7 °F 69% 29.95 in 10.0 mi NW 5.8 mph - N/A   Clear
10:35 PM 64.6 °F - 54.5 °F 70% 29.95 in 10.0 mi WNW 4.6 mph - N/A   Clear
10:55 PM 63.5 °F - 54.7 °F 73% 29.96 in 10.0 mi WNW 3.5 mph - N/A   Clear
11:15 PM 62.6 °F - 54.5 °F 75% 29.96 in 10.0 mi WNW 4.6 mph - N/A   Scattered Clouds
11:16 PM 62.6 °F - 54.5 °F 75% 29.96 in 10.0 mi WNW 4.6 mph - N/A   Scattered Clouds
11:35 PM 62.6 °F - 54.5 °F 75% 29.96 in 10.0 mi West 3.5 mph - N/A   Mostly Cloudy
11:55 PM 61.9 °F - 53.8 °F 75% 29.96 in 10.0 mi WNW 5.8 mph - N/A   Scattered Clouds